Total_Precipitation_Accumulation
1.87 1.40 2.28 2.20 1.99 1.74 1.57 1.60 1.68 1.72 1.75 1.68 1.60 1.47 1.30 1.18 1.05 0.94 0.87 0.80 0.79 0.84 0.95 1.00 0.93 0.90 0.79 0.75 0.77 0.83 0.84 0.83 0.82 0.72 0.66 0.67 0.71 0.81 1.00 1.14 1.41 1.82 1.43
1.28 1.16 2.05 2.26 2.07 1.88 1.77 1.71 1.67 1.69 1.70 1.56 1.47 1.40 1.25 1.09 0.97 0.90 0.85 0.83 0.78 0.75 0.83 0.89 0.90 0.93 0.90 0.87 0.94 0.99 0.93 0.86 0.93 0.91 0.96 1.01 0.89 0.87 0.90 1.07 1.50 1.79 1.36
1.09 1.03 1.52 2.17 2.12 1.99 1.93 1.80 1.69 1.65 1.53 1.37 1.31 1.17 1.09 0.98 0.88 0.81 0.82 0.83 0.81 0.73 0.75 0.81 0.87 0.93 0.93 0.98 1.02 1.04 1.02 1.01 1.03 1.07 1.45 1.93 1.46 1.10 1.07 1.10 1.18 1.21 1.21
0.87 0.90 1.17 1.75 1.81 1.79 1.78 1.65 1.59 1.46 1.31 1.32 1.33 1.14 1.02 0.96 0.91 0.89 0.89 0.80 0.77 0.72 0.76 0.81 0.85 0.94 0.98 0.99 0.95 0.93 0.96 1.03 1.13 1.13 1.51 1.96 1.91 1.48 1.29 1.26 1.13 1.10 1.22
0.73 0.87 1.28 1.67 1.67 1.67 1.62 1.47 1.46 1.31 1.17 1.17 1.21 1.14 1.10 1.00 0.93 0.88 0.88 0.87 0.83 0.80 0.80 0.80 0.86 0.92 0.99 1.01 0.95 0.90 0.95 1.17 1.16 1.07 1.33 1.67 2.08 1.71 1.37 1.36 1.25 1.20 1.28
0.85 0.87 1.07 1.39 1.45 1.47 1.33 1.29 1.31 1.20 1.16 1.08 1.02 1.03 1.05 1.00 0.95 0.89 0.90 0.91 0.86 0.85 0.87 0.89 0.95 0.98 0.97 0.97 0.96 1.03 1.11 1.18 1.06 1.21 1.40 1.63 1.91 1.67 1.30 1.20 1.28 1.39 1.49
0.77 0.74 0.84 1.20 1.24 1.25 1.17 1.16 1.25 1.20 1.14 1.02 0.96 1.04 1.13 1.04 0.98 0.94 0.95 0.92 0.89 0.85 0.88 0.91 0.97 0.99 0.90 0.91 0.96 1.01 1.11 1.09 1.12 1.32 1.41 1.59 1.58 1.51 1.26 1.13 1.28 1.39 1.50
0.91 0.79 0.80 1.13 1.19 1.14 1.11 1.08 1.15 1.22 1.13 1.01 0.97 0.99 1.02 0.99 0.90 0.90 0.89 0.92 0.91 0.89 0.90 0.91 0.95 0.92 0.81 0.84 0.87 0.92 1.06 1.01 0.97 1.14 1.28 1.51 1.62 1.51 1.17 1.09 1.15 1.28 1.45
1.24 1.12 1.03 1.05 1.05 1.09 1.10 1.05 1.21 1.36 1.22 1.06 0.95 0.93 0.87 0.85 0.81 0.80 0.82 0.91 0.90 0.91 0.88 0.88 0.94 0.91 0.85 0.82 0.84 0.96 1.11 1.04 0.89 1.06 1.07 1.42 1.69 1.53 1.25 1.11 1.12 1.28 1.40
1.21 1.16 1.15 1.19 1.17 1.16 1.18 1.27 1.42 1.73 1.61 1.23 1.02 0.89 0.84 0.77 0.74 0.77 0.75 0.83 0.93 0.98 0.99 0.99 1.03 0.99 0.99 0.92 0.92 1.03 1.11 0.88 0.83 0.84 0.99 1.27 1.73 1.59 1.28 1.12 1.07 1.13 1.20
0.93 0.97 1.03 1.09 1.09 1.12 1.08 1.25 1.53 1.82 1.88 1.53 1.24 1.08 0.90 0.63 0.64 0.74 0.72 0.89 1.02 1.08 1.13 1.20 1.23 1.15 1.09 0.99 1.01 1.06 0.90 0.68 0.89 0.92 1.05 1.38 1.65 1.62 1.31 1.07 0.99 1.04 1.03
0.72 0.68 0.70 0.71 0.77 0.81 0.86 1.12 1.34 1.41 1.61 1.40 1.35 1.21 1.05 0.97 0.90 0.73 0.73 0.99 1.17 1.17 1.16 1.26 1.38 1.18 0.95 0.75 0.82 0.89 0.70 0.65 0.80 0.86 0.99 1.52 1.83 1.76 1.40 1.17 1.10 1.08 0.99
0.64 0.61 0.56 0.53 0.56 0.63 0.76 0.97 1.17 1.31 1.47 1.47 1.44 1.37 1.36 1.30 0.97 0.81 0.89 0.97 1.08 1.09 0.96 1.05 1.13 0.94 0.76 0.67 0.76 0.73 0.63 0.65 0.75 0.85 1.08 1.56 1.94 1.90 1.50 1.23 1.24 1.17 1.10
0.55 0.63 0.58 0.43 0.42 0.45 0.54 0.74 0.93 1.14 1.33 1.36 1.18 1.10 1.22 1.24 1.05 0.91 1.05 1.14 1.17 1.16 1.17 1.18 1.15 1.00 0.79 0.72 0.74 0.74 0.69 0.73 0.78 0.85 1.04 1.24 1.70 1.90 1.75 1.50 1.45 1.32 1.31
0.55 0.62 0.63 0.54 0.45 0.44 0.49 0.58 0.63 0.92 1.11 1.25 1.28 1.06 1.18 1.22 1.15 1.02 0.96 1.14 1.13 1.17 1.22 1.24 1.25 1.12 1.02 0.91 0.88 0.81 0.86 0.82 0.78 0.75 0.90 0.98 1.24 1.64 1.86 1.84 1.80 1.59 1.51
0.50 0.57 0.60 0.61 0.58 0.55 0.53 0.55 0.54 0.59 0.70 0.82 0.77 0.74 0.93 1.06 1.04 1.04 0.90 0.97 1.08 1.22 1.42 1.47 1.30 1.20 1.14 1.07 1.07 1.02 1.00 0.93 0.89 0.77 0.85 0.90 0.85 1.03 1.39 1.79 2.02 1.87 1.73
0.47 0.52 0.55 0.60 0.65 0.66 0.66 0.73 0.66 0.61 0.66 0.65 0.61 0.62 0.73 0.85 0.88 0.99 1.00 0.97 1.01 1.23 1.48 1.61 1.48 1.36 1.20 1.18 1.17 1.15 1.05 1.05 1.01 0.91 0.92 1.02 0.85 0.80 1.05 1.50 1.93 2.06 1.95
0.42 0.41 0.44 0.47 0.52 0.57 0.61 0.68 0.76 0.76 0.76 0.72 0.75 0.72 0.67 0.81 0.93 1.05 1.11 1.05 1.05 1.26 1.48 1.66 1.69 1.65 1.52 1.44 1.37 1.29 1.21 1.29 1.16 1.07 1.05 1.10 1.19 1.02 0.98 1.17 1.47 1.79 2.01
0.39 0.34 0.32 0.34 0.35 0.38 0.43 0.54 0.66 0.74 0.81 0.87 0.89 0.88 0.86 0.91 0.94 1.09 1.26 1.28 1.27 1.39 1.47 1.50 1.59 1.58 1.59 1.60 1.44 1.41 1.34 1.43 1.43 1.29 1.33 1.33 1.35 1.28 1.14 1.01 1.10 1.20 1.56
0.33 0.32 0.31 0.32 0.31 0.28 0.32 0.45 0.56 0.63 0.72 0.88 0.95 1.02 1.28 1.38 1.16 1.14 1.27 1.29 1.35 1.52 1.56 1.66 1.84 1.75 1.64 1.74 1.60 1.52 1.47 1.45 1.43 1.48 1.53 1.52 1.49 1.34 1.30 1.14 1.15 1.01 1.13
0.18 0.17 0.19 0.24 0.32 0.30 0.26 0.33 0.44 0.54 0.68 0.81 0.98 1.05 1.29 1.39 1.30 1.32 1.33 1.33 1.38 1.44 1.49 1.66 2.00 2.00 1.82 1.72 1.91 1.89 1.79 1.60 1.54 1.55 1.55 1.65 1.64 1.46 1.42 1.47 1.34 1.12 0.95
0.11 0.10 0.12 0.16 0.25 0.33 0.36 0.41 0.53 0.71 0.84 0.93 1.07 1.14 1.26 1.28 1.28 1.22 1.37 1.46 1.43 1.53 1.61 1.76 2.03 2.20 2.00 1.82 2.14 2.55 2.34 2.07 1.74 1.54 1.53 1.46 1.56 1.57 1.47 1.35 1.28 1.19 1.05
0.08 0.08 0.13 0.21 0.34 0.51 0.66 0.89 1.13 1.41 1.54 1.43 1.29 1.37 1.49 1.57 1.54 1.47 1.54 1.67 1.58 1.61 1.69 1.72 1.81 2.22 2.35 2.14 2.10 2.62 2.50 2.31 2.23 1.76 1.41 1.28 1.48 1.59 1.58 1.45 1.35 1.36 1.29
0.16 0.22 0.31 0.42 0.58 0.75 0.96 1.18 1.43 1.68 1.84 1.86 1.88 1.92 1.90 1.85 1.75 1.64 1.64 1.68 1.69 1.74 1.70 1.58 1.73 2.12 2.54 2.55 2.35 2.17 2.03 2.00 2.19 2.09 1.56 1.30 1.38 1.50 1.65 1.55 1.48 1.47 1.44
0.34 0.46 0.56 0.78 0.94 1.08 1.15 1.24 1.47 1.57 1.64 1.75 1.90 1.95 1.95 1.88 1.76 1.62 1.55 1.61 1.67 1.76 1.76 1.81 1.98 2.26 2.50 2.70 2.64 2.39 2.12 1.92 1.61 1.80 1.81 1.60 1.38 1.31 1.38 1.46 1.56 1.54 1.47
0.62 0.84 0.98 1.09 1.18 1.16 1.16 1.18 1.31 1.45 1.54 1.63 1.76 1.82 1.76 1.64 1.60 1.54 1.52 1.50 1.46 1.53 1.64 1.81 2.05 2.18 2.36 2.57 2.59 2.32 2.15 2.03 1.86 1.75 1.62 1.69 1.67 1.39 1.26 1.23 1.34 1.44 1.44